Location: Dodgeville, WI 53533, USA
(43.0344°N, 90.0900°W)
Time: 09:23:59
(UTC-06:00)

X-37B - Visible Passes

Search period start: 24 January 2021 00:00
Search period end: 03 February 2021 00:00
Orbit: 383 x 391 km, 45.1° (Epoch: 22 January)

Date Brightness Start Highest point End Pass type
(mag) Time Alt. Az. Time Alt. Az. Time Alt. Az.
24 Jan 0.8 18:35:01 10° W 18:38:10 56° N 18:38:36 50° NE visible
25 Jan 0.8 17:36:33 10° W 17:39:42 62° N 17:42:53 10° ENE visible
25 Jan 2.3 19:13:20 10° WNW 19:15:12 31° WNW 19:15:12 31° WNW visible
26 Jan 0.8 18:14:56 10° WNW 18:18:06 59° N 18:19:33 28° ENE visible
26 Jan 4.1 19:51:37 10° WNW 19:51:50 11° W 19:51:50 11° W visible
27 Jan 0.6 18:53:13 10° WNW 18:56:15 79° W 18:56:15 79° W visible
28 Jan 0.6 17:54:50 10° WNW 17:58:01 71° NNE 18:00:44 13° E visible
28 Jan 3.2 19:31:36 10° W 19:33:03 21° WSW 19:33:03 21° WSW visible
29 Jan 1.1 18:33:06 10° WNW 18:36:15 56° SSW 18:37:39 28° SE visible
30 Jan 2.8 19:11:48 10° W 19:14:15 20° SSW 19:14:42 19° SSW visible
31 Jan 2.2 18:13:06 10° W 18:16:01 33° SSW 18:18:56 10° SE visible
01 Feb 3.7 18:52:45 10° WSW 18:53:52 11° SW 18:55:00 10° SSW visible
02 Feb 3.3 17:53:19 10° W 17:55:43 20° SW 17:58:07 10° SSE visible
